Tracking 18984 objects as of 24-Feb-2018
HD Live streaming from Space Station
objects crossing your sky now

SMS 1

Track SMS 1 now!
SMS 1 is classified as:


NORAD ID: 7298
Int'l Code: 1974-033A
Perigee: 36,174.0 km
Apogee: 36,356.1 km
Inclination: 11.5 °
Period: 1,460.2 minutes
Semi major axis: 42636 km
RCS: 3.1533 m2 (large)
Launch date: May 17, 1974
Source: United States (US)
Launch site: AIR FORCE EASTERN TEST RANGE (AFETR)
aabbcc
Your satellite tracking list
Your tracking list is empty




NASA's NSSDC Master Catalog

Two Line Element Set (TLE):
1  7298U 74033A   18052.33547751 -.00000198 +00000-0 +00000-0 0  9993
2  7298 011.5490 302.9463 0021354 345.6639 305.6429 00.98613859089911
Source of the keplerian elements: AFSPC